Theta_e
337 338 339 338 338 339 340 341 341 341 341 341 340 341 340 338 338 338 339 341 341 339 340 340 340 340 341 339 339 342 342 344 344 346 346 345 346 346 347 348 350 350 349 349 349 345 345 345 345 344 345 342 341 341 340 339 339 339 336 337 334 333 330 330 330 335 331 332 333 333 334 334 332 331 329 327 323 317 316 318 317 317 318 318 320
338 336 337 337 337 339 340 339 340 338 339 340 340 340 340 340 339 339 339 340 340 340 340 340 342 340 339 339 341 341 341 340 343 346 347 345 346 345 346 347 347 348 348 349 347 346 344 342 342 341 341 340 340 339 339 337 338 337 337 336 332 329 328 328 329 332 324 321 327 328 327 330 333 331 327 325 319 315 317 318 318 317 317 318 318
334 335 336 335 336 337 338 339 340 339 339 339 340 340 340 339 339 339 339 339 339 340 340 340 342 345 343 342 342 339 344 344 344 345 346 345 346 347 346 347 347 346 348 346 344 344 343 342 341 341 340 339 338 336 336 335 335 334 333 332 331 330 327 328 327 327 322 326 324 329 323 323 325 326 327 324 316 315 316 316 316 316 316 317 316
331 333 333 334 335 336 336 337 338 339 339 340 340 339 339 338 339 339 340 339 340 342 341 343 344 344 344 344 342 341 339 341 342 344 344 343 341 343 342 341 341 343 343 342 342 341 342 341 340 339 338 337 336 334 334 333 332 331 331 330 333 327 324 323 326 326 324 324 320 317 318 323 318 313 322 324 320 315 314 315 316 315 315 315 315
331 332 334 334 334 334 335 336 337 336 337 337 339 340 339 338 339 341 341 342 341 342 342 342 341 342 341 341 341 339 340 338 338 338 340 339 337 337 338 337 338 339 340 340 339 339 339 338 337 337 336 337 336 332 331 328 328 328 330 328 330 328 323 324 323 324 323 323 322 322 320 311 309 311 321 317 317 314 314 315 315 315 315 315 314
332 332 333 334 334 335 336 336 335 336 336 339 340 341 340 339 341 341 342 339 340 341 340 338 339 338 336 334 332 333 332 333 333 335 335 333 332 334 335 336 335 334 336 337 336 336 336 336 337 337 335 334 333 331 329 327 326 326 327 327 326 328 326 323 322 322 322 321 320 318 318 312 309 310 314 312 317 315 315 314 315 315 315 315 315
332 333 333 333 333 333 334 334 335 336 337 340 341 341 341 342 341 337 333 334 338 339 340 337 335 335 337 337 337 335 333 335 339 339 336 333 332 330 332 333 331 332 334 335 335 335 335 336 335 334 333 331 330 328 326 326 325 325 325 324 323 325 324 319 322 321 319 320 318 315 314 314 314 312 309 315 312 312 311 312 313 313 314 313 312
330 332 333 334 333 333 333 334 336 337 339 340 340 340 338 333 332 332 334 334 335 337 339 337 335 336 337 339 339 337 336 337 337 334 333 333 330 327 328 330 328 330 332 332 332 333 333 332 332 331 329 328 325 325 325 325 324 324 324 323 322 321 322 318 316 318 315 314 319 316 314 315 314 315 316 313 309 307 306 311 312 312 311 312 312
331 331 332 333 333 333 334 335 337 339 340 339 338 335 331 331 331 332 332 334 336 336 336 338 339 338 338 338 336 338 336 333 332 331 329 331 326 325 326 328 330 330 330 330 329 329 330 330 329 328 326 324 323 323 323 322 322 322 321 320 319 319 319 317 315 314 317 315 314 314 315 313 313 314 314 313 310 309 305 308 308 311 311 310 311
331 331 332 334 334 334 336 337 338 338 339 339 336 331 331 332 332 334 333 335 337 336 337 338 339 340 338 337 336 334 330 329 328 325 324 328 327 327 326 327 326 326 327 327 327 327 327 327 326 325 325 323 322 322 320 320 320 319 319 319 318 317 317 317 315 315 315 315 314 315 314 313 313 312 312 312 311 312 306 305 307 308 307 308 311
330 330 332 334 335 335 336 335 338 339 339 338 332 331 332 333 334 335 335 336 336 336 338 338 339 339 337 337 336 333 331 328 322 321 322 325 324 325 326 325 325 324 324 325 327 327 327 326 324 324 324 323 321 319 319 318 318 317 317 317 317 316 315 316 315 316 315 313 313 312 310 311 310 309 310 310 310 310 308 305 307 306 304 305 308
329 330 331 333 333 334 335 335 336 336 337 334 329 330 332 333 333 331 333 335 335 337 339 338 338 338 338 337 335 333 329 326 324 321 323 327 324 323 324 324 323 322 322 323 325 325 324 323 324 323 322 321 319 319 319 317 316 316 315 315 315 316 316 316 315 313 313 312 313 312 311 311 311 310 310 310 309 308 309 307 305 307 307 306 307
329 329 330 331 332 332 333 334 334 334 335 332 329 331 333 333 331 329 330 334 336 338 338 338 338 338 338 337 335 333 329 328 326 323 324 324 323 322 322 321 320 320 322 323 323 323 322 323 322 321 319 319 319 317 317 316 315 314 314 314 314 314 314 315 313 314 314 312 311 312 311 311 310 311 311 310 310 310 309 307 307 307 306 305 306
329 329 330 331 331 332 333 334 333 334 334 332 331 332 332 331 331 330 328 333 335 339 339 338 338 338 338 334 333 333 328 325 326 326 327 325 325 323 321 321 321 322 323 323 323 323 322 323 322 320 319 318 318 317 316 315 315 313 314 314 314 313 314 314 314 314 313 313 313 311 311 310 310 311 310 310 308 308 306 306 307 308 308 304 305
330 330 330 330 332 333 333 333 334 334 334 333 332 332 331 328 330 329 329 333 334 335 338 338 337 338 336 333 330 329 328 327 328 326 324 324 327 324 322 321 321 321 321 321 322 322 322 321 320 319 318 318 317 315 314 314 315 314 314 314 313 314 313 313 312 313 311 311 312 311 310 310 309 309 309 309 309 308 307 306 306 304 304 304 305
330 330 331 332 333 333 333 333 333 333 334 333 332 332 330 330 330 332 332 334 334 336 337 337 337 337 334 329 329 328 328 328 325 324 325 326 326 324 320 320 319 319 320 320 320 321 321 320 319 317 317 316 316 314 313 314 314 313 312 312 312 312 312 312 312 313 312 312 311 310 310 308 309 309 309 309 308 309 308 307 306 305 302 300 303
330 331 331 332 332 333 333 333 333 334 333 332 332 334 332 330 330 332 333 334 334 336 336 336 334 333 330 328 328 327 326 325 325 323 324 325 323 320 319 320 319 319 319 320 320 320 319 318 317 317 316 315 315 314 314 314 314 313 313 312 312 313 312 311 311 311 312 311 310 310 309 308 308 310 309 309 310 310 309 308 307 304 305 302 300
331 332 333 332 331 332 332 333 334 333 333 332 333 334 333 332 332 333 333 333 334 335 336 335 332 332 329 327 327 327 326 324 325 322 323 322 321 319 318 318 318 318 318 319 319 319 318 317 316 315 315 314 313 313 313 314 314 312 312 312 311 313 312 312 311 311 311 311 310 310 310 308 310 309 308 309 310 310 308 308 307 306 306 303 302
330 331 331 331 332 332 332 333 334 334 333 333 332 333 334 334 333 334 333 332 333 336 337 335 332 331 330 328 327 326 325 324 324 323 323 320 317 318 319 318 319 319 318 319 318 318 317 316 315 314 314 313 313 313 313 313 313 311 311 310 312 312 311 310 311 311 310 311 309 309 309 308 309 309 309 309 309 309 307 307 307 307 306 306 304
329 330 330 331 331 332 332 333 332 332 333 333 333 333 332 333 333 334 335 335 335 335 336 333 331 329 328 328 327 325 322 322 321 320 319 317 317 318 318 318 318 319 319 319 317 316 316 315 315 314 313 312 312 312 312 312 312 311 311 310 311 310 309 309 309 310 309 308 308 307 308 308 308 308 308 308 308 308 308 306 307 306 306 306 305
329 329 330 330 331 332 333 334 334 333 333 333 332 332 332 333 333 333 334 334 333 334 334 333 330 328 327 326 325 323 322 322 322 321 318 317 318 317 318 318 319 319 318 317 316 316 315 315 314 313 312 312 312 311 312 312 311 310 310 310 309 309 307 307 308 308 308 308 306 306 306 307 308 308 307 307 307 307 307 306 306 305 304 306 304
330 330 330 330 332 332 332 332 334 332 331 332 332 332 331 332 332 332 333 334 333 332 333 331 329 327 327 326 324 324 323 322 321 318 316 316 317 318 319 319 318 317 317 316 315 316 315 314 313 312 311 310 310 311 311 311 310 310 310 310 309 308 307 307 307 306 308 308 308 306 306 307 307 307 307 306 306 306 306 305 304 305 303 304 306
330 330 330 329 331 331 331 331 332 332 331 331 332 331 330 332 332 332 331 332 333 333 332 330 327 326 326 325 324 323 322 321 318 316 315 316 317 319 318 318 318 317 317 317 316 316 314 314 313 311 310 310 310 310 311 310 310 309 308 309 309 308 307 307 306 306 306 307 307 307 307 307 308 307 307 307 307 307 307 306 305 306 305 306 306
330 329 330 330 330 331 331 331 330 330 330 329 330 330 331 333 332 331 332 331 332 331 330 329 327 325 324 324 323 322 321 320 317 315 315 316 317 318 318 317 317 317 315 317 316 315 314 313 312 310 310 309 309 310 309 309 308 309 308 307 308 308 307 307 306 306 306 306 306 306 306 307 307 306 306 305 306 307 306 305 305 305 306 306 307
328 329 329 330 330 329 329 330 330 330 329 329 328 329 330 332 333 333 333 332 330 328 329 328 326 324 323 323 323 322 321 320 317 315 317 318 318 317 317 316 317 316 316 315 315 315 313 312 311 309 309 309 309 309 308 308 309 309 308 308 307 307 308 307 307 306 306 306 305 305 305 306 306 306 306 305 306 306 305 305 305 305 305 306 306
328 328 329 329 328 329 329 329 330 330 329 328 327 328 330 332 333 335 333 331 329 329 328 327 325 324 323 324 323 322 321 319 317 316 317 318 317 316 315 316 316 316 315 315 314 313 312 311 309 309 309 309 309 309 308 308 308 308 308 308 308 307 307 306 306 306 306 306 306 305 305 305 305 305 305 306 307 306 307 305 305 305 305 306 306
326 327 328 329 328 328 329 329 329 329 329 327 326 326 328 330 331 333 333 331 329 329 328 327 326 325 324 323 323 322 320 318 317 318 318 316 314 314 315 315 316 316 315 314 313 312 312 310 309 309 309 309 308 308 308 308 307 308 308 307 307 307 306 306 306 306 306 306 306 306 306 305 305 305 305 305 306 307 306 305 305 305 305 305 304
327 328 328 327 327 328 329 329 328 328 327 326 326 326 326 327 329 331 331 330 330 330 328 327 326 325 323 320 319 320 319 318 318 317 315 314 314 314 315 316 316 315 314 313 312 312 311 310 309 309 309 309 308 308 308 308 308 308 307 307 307 306 306 306 306 306 306 306 306 305 304 303 303 303 304 304 304 305 306 305 304 305 304 304 303
326 327 327 328 327 327 328 327 327 327 326 325 325 324 325 328 330 330 330 329 329 330 329 327 326 323 321 318 316 317 316 315 315 314 313 312 312 313 315 315 315 315 314 313 313 312 310 308 308 309 309 309 308 308 308 308 307 307 307 306 306 305 306 305 305 305 305 304 303 303 302 302 301 299 297 298 297 298 305 303 303 304 303 303 302
326 327 327 327 327 327 326 326 325 325 324 324 323 323 324 326 326 326 327 328 327 327 325 325 324 321 318 316 314 313 314 314 312 310 311 311 312 314 315 315 314 314 313 313 312 311 309 308 308 308 309 308 308 308 306 303 304 307 307 306 307 307 306 306 305 304 304 304 302 301 300 301 301 300 297 295 294 295 295 301 302 302 301 301 300
325 326 327 327 327 326 326 325 325 324 324 323 322 323 324 325 324 323 323 324 325 322 320 320 320 319 316 314 313 312 311 310 310 310 310 311 312 314 315 314 314 313 313 312 311 310 309 308 308 308 308 308 308 307 296 295 295 300 307 307 307 307 306 306 305 305 304 304 303 303 304 304 304 303 302 294 295 293 293 293 293 295 297 300 300
325 325 326 326 326 325 325 324 324 325 323 322 321 322 322 323 323 321 322 323 321 318 318 317 316 317 315 313 310 309 309 309 310 310 310 312 313 314 314 314 313 313 312 312 311 309 308 308 308 308 308 308 308 299 293 294 295 295 300 307 307 306 306 306 305 305 304 304 303 302 302 301 301 303 304 304 301 295 294 293 292 292 292 291 293
326 326 326 326 326 326 325 325 326 324 323 323 322 321 321 322 322 322 321 319 317 315 314 313 314 315 313 309 308 308 308 308 309 310 312 312 313 314 313 313 312 313 312 311 310 309 308 308 308 307 307 307 306 294 293 293 294 294 294 301 307 307 306 305 305 305 305 304 303 302 302 302 302 302 302 303 303 303 298 294 295 294 293 292 290
327 327 327 327 327 326 325 325 325 325 325 324 324 322 322 322 322 320 318 317 315 313 312 311 311 312 310 308 308 308 308 308 309 311 313 313 313 313 313 313 312 312 311 310 310 309 308 308 307 307 306 307 304 295 293 292 293 292 293 295 307 307 306 305 305 304 305 304 304 303 302 302 304 302 301 302 303 303 304 304 304 304 304 303 293
326 327 327 328 328 328 326 325 324 323 324 322 321 322 322 320 321 320 319 316 314 312 311 310 309 309 310 310 309 308 308 309 310 312 314 313 313 313 312 312 312 311 310 309 309 308 308 308 308 307 307 306 304 293 292 292 292 292 292 295 307 306 306 306 305 305 304 304 303 304 303 303 303 300 299 297 300 303 305 304 304 304 305 304 303
327 328 328 327 327 328 327 326 326 325 325 325 320 320 320 320 322 320 317 315 313 311 310 309 307 307 307 308 307 307 307 309 310 312 313 312 312 312 311 311 311 310 311 310 309 308 307 307 308 308 307 306 304 292 292 292 292 292 291 305 305 305 304 304 304 304 303 304 304 304 303 302 303 301 296 289 293 299 305 303 302 304 304 304 304
330 330 329 329 328 327 327 326 325 326 325 322 320 319 318 318 318 318 316 315 313 311 310 309 308 307 307 307 307 306 307 309 310 310 311 311 311 311 311 311 309 309 308 308 307 307 307 307 306 306 307 306 303 294 292 292 292 291 295 305 305 304 304 304 303 303 303 304 304 304 304 303 302 301 294 288 290 292 304 302 303 303 303 302 301
331 331 331 331 329 328 329 327 326 325 325 322 321 320 319 319 317 315 314 312 311 310 310 310 309 309 309 308 307 307 307 309 310 310 310 311 311 311 311 310 309 308 307 307 307 306 306 306 305 304 304 303 301 296 291 292 292 291 297 305 304 303 303 303 303 304 304 303 300 299 303 304 302 300 290 289 288 298 303 302 303 302 301 300 300
330 330 330 330 329 328 327 328 326 323 323 323 322 321 319 320 316 315 314 312 310 310 309 309 308 309 310 310 309 308 308 307 308 309 311 310 310 310 310 310 310 309 307 307 306 306 304 304 304 303 303 302 301 298 292 292 291 292 298 306 303 303 302 302 302 301 303 303 301 300 298 298 301 297 287 289 288 295 304 303 303 301 299 299 298
331 330 330 329 329 327 327 327 326 326 326 325 323 322 320 318 316 316 315 312 312 312 312 311 311 309 308 308 309 309 310 309 309 310 311 310 309 308 308 307 307 307 306 305 304 304 302 302 303 304 303 303 301 300 297 291 292 292 292 306 304 302 301 302 302 301 301 303 303 302 297 289 289 288 289 288 290 287 300 304 302 300 299 297 298
329 328 320 328 328 327 326 327 327 327 327 326 323 321 320 321 319 316 315 313 311 311 310 310 310 308 307 307 308 309 309 310 310 310 309 308 308 307 306 305 305 304 304 303 303 303 302 302 303 305 304 304 303 301 301 291 292 292 292 294 305 303 303 301 302 300 302 302 302 303 303 292 289 289 289 287 289 289 289 303 300 299 297 299 293
327 325 327 329 328 328 327 327 327 326 326 324 323 321 321 320 318 316 315 314 311 309 309 310 309 309 307 307 309 310 310 309 308 306 306 305 305 305 304 303 303 303 303 303 303 303 302 302 304 305 305 305 306 303 303 293 292 292 292 291 302 304 303 303 302 302 302 303 303 302 304 295 288 290 288 290 286 289 288 300 301 288 287 287 297
328 327 327 327 327 327 325 325 325 325 325 326 326 321 319 319 318 318 318 316 313 309 308 309 310 309 306 307 308 307 307 306 306 306 305 304 304 304 305 305 304 304 304 304 303 303 302 303 304 304 305 306 307 306 299 300 293 292 291 292 291 299 293 304 303 302 302 302 303 304 302 291 290 289 290 288 289 287 290 297 285 287 288 287 290
327 327 327 327 327 327 326 325 325 325 324 324 322 320 320 318 318 319 318 316 312 309 309 308 309 308 306 306 306 307 307 306 305 305 304 303 302 303 303 303 304 305 304 304 304 304 303 302 301 302 304 306 308 307 299 297 298 291 292 291 291 289 291 301 304 304 304 303 303 304 302 289 289 289 288 288 290 290 294 286 287 288 288 288 299
326 326 326 326 326 325 326 326 324 324 323 323 324 324 321 319 319 315 312 312 311 309 308 306 306 306 306 306 307 308 307 306 305 305 305 304 304 304 302 304 305 304 304 303 303 304 303 302 302 303 304 304 306 306 307 300 294 292 291 290 290 289 291 289 301 303 305 305 296 288 286 287 289 289 289 288 289 289 286 288 287 287 290 301 300
326 326 325 326 326 325 325 325 324 324 323 322 324 323 318 317 312 312 312 312 311 309 307 306 306 306 306 306 306 306 306 307 307 306 306 304 304 303 303 303 303 303 304 304 303 303 303 303 302 304 303 304 305 306 307 305 298 295 294 290 290 290 292 290 293 300 287 286 288 290 287 287 288 290 297 299 302 301 290 288 288 290 303 300 300
325 325 323 325 324 322 322 323 323 322 322 321 322 320 316 313 313 313 313 313 312 309 307 307 306 305 305 305 305 304 304 305 306 306 306 305 304 303 303 302 302 302 303 303 303 303 303 303 303 303 303 304 305 305 306 306 304 303 303 300 297 298 292 291 296 300 297 299 296 296 298 293 294 290 292 291 293 294 295 296 299 301 301 300 300
326 324 323 324 322 321 320 320 320 321 320 319 320 320 318 315 314 314 314 313 312 310 308 307 306 305 304 304 304 296 301 304 304 305 304 305 305 304 303 302 302 303 302 302 303 303 302 304 303 304 304 304 304 304 304 305 304 304 304 303 303 302 302 301 299 300 302 301 302 295 294 300 300 300 299 299 299 302 300 298 300 300 300 299 297
325 323 323 323 323 321 321 321 320 320 319 317 316 314 315 314 313 313 313 312 311 308 309 307 305 304 303 304 305 303 305 305 305 305 306 306 306 305 304 304 306 305 305 304 304 303 304 306 305 304 304 304 304 303 305 299 305 297 301 304 303 302 303 301 298 294 302 304 302 300 298 299 299 298 295 301 300 300 301 301 301 301 301 301 302
324 323 323 323 322 321 320 320 319 318 316 316 316 314 315 314 313 313 314 313 311 310 309 305 304 304 304 304 304 304 305 304 305 305 306 306 292 293 301 305 304 298 296 296 297 304 306 306 306 306 307 305 304 305 295 293 293 293 294 292 290 291 292 297 292 288 298 301 301 299 300 298 300 300 298 298 299 300 300 299 300 295 297 300 299
322 321 321 322 321 319 319 318 318 317 316 315 315 314 313 313 313 313 314 313 311 309 308 306 304 304 301 303 303 304 305 305 306 306 306 305 304 302 289 287 292 297 295 293 292 291 294 296 302 306 302 289 291 291 291 292 291 292 292 291 291 290 289 287 289 297 295 296 296 297 298 299 299 299 298 299 299 296 295 295 297 298 299 299 293
Wind_Speed
10 11 12 13 12 11 12 10 11 12 12 13 13 13 13 12 12 13 12 13 10 10 9 9 9 9 8 8 8 8 7 6 5 4 5 4 5 5 5 4 5 4 4 4 4 3 4 4 3 3 2 3 3 4 3 4 3 3 3 2 3 2 5 6 6 5 2 4 3 6 7 6 7 6 7 8 8 8 7 7 7 7 6 7 6
9 10 12 12 11 12 11 11 11 14 13 13 14 14 12 13 13 13 12 12 11 10 10 9 9 8 8 8 7 7 7 6 5 4 4 4 4 5 5 4 5 5 4 4 4 4 5 4 3 3 3 4 3 3 4 3 4 3 3 1 3 4 5 7 7 7 1 2 3 6 5 5 6 6 7 9 9 8 7 7 7 7 7 6 6
10 10 11 12 12 13 10 9 10 13 13 14 13 14 13 13 12 12 11 12 10 10 10 9 8 7 7 7 5 6 4 4 6 4 3 3 2 2 2 4 5 5 5 5 4 4 4 4 4 3 3 2 2 3 3 4 4 3 4 3 2 4 6 6 8 9 4 2 1 4 5 6 5 6 7 8 9 9 7 8 7 7 8 7 7
12 12 13 12 12 11 11 10 11 12 11 12 13 14 11 12 13 13 12 10 9 10 9 10 9 7 7 8 8 7 6 5 5 4 4 4 3 3 3 3 3 5 5 5 5 4 4 3 3 3 3 3 3 3 4 4 4 4 4 3 2 3 5 7 8 9 7 5 3 2 2 3 6 5 4 7 8 11 9 9 7 7 7 8 7
13 13 13 14 13 13 13 13 10 11 11 12 11 11 9 13 13 13 10 8 10 10 10 9 8 7 6 6 6 6 6 6 6 4 4 4 3 4 3 2 2 5 5 5 6 6 5 4 4 5 4 3 3 3 4 5 4 4 4 4 5 3 5 5 7 8 10 9 6 2 3 4 4 3 2 7 5 7 9 8 7 7 7 7 6
14 14 13 12 11 11 11 12 13 12 12 11 11 11 11 12 13 12 9 8 10 13 14 10 8 8 9 9 9 8 8 7 7 7 6 5 5 4 4 4 3 5 5 6 6 5 6 5 4 4 3 3 4 4 4 4 6 6 5 4 5 5 3 4 5 6 8 10 10 9 7 5 3 2 5 5 5 7 7 8 7 7 6 6 6
13 12 12 13 12 12 13 13 13 12 12 9 10 11 9 8 12 10 10 7 9 10 14 11 13 12 12 11 10 10 9 7 5 5 6 6 4 5 4 4 6 6 5 6 6 6 5 5 5 4 4 4 5 5 5 5 5 6 5 6 5 5 4 5 4 5 6 8 8 9 9 7 6 4 3 3 5 6 6 6 7 7 7 7 6
13 13 13 13 13 14 14 13 12 12 10 9 7 8 8 8 13 11 10 12 12 13 14 12 13 12 12 11 10 10 8 7 7 7 8 6 5 4 5 4 6 5 4 6 6 6 6 6 6 5 5 5 5 6 6 5 5 6 6 6 6 6 6 5 6 5 5 6 5 6 7 7 7 8 6 5 3 3 5 6 6 6 7 7 7
14 13 13 13 13 14 12 13 13 11 9 8 9 7 12 13 12 17 14 13 11 16 14 13 12 12 11 9 9 6 8 8 9 9 8 4 6 4 4 5 6 5 5 6 6 6 5 6 6 6 6 6 6 6 7 7 8 7 7 7 7 7 6 6 6 7 6 5 4 5 5 5 6 6 5 6 4 2 4 3 3 3 5 6 6
13 14 12 13 14 14 12 10 10 9 7 7 9 15 13 16 19 14 12 11 9 14 13 13 14 12 11 12 11 10 9 8 8 10 10 6 6 5 4 5 5 6 6 6 6 6 6 6 7 8 7 7 7 7 8 8 7 8 8 8 8 8 7 8 8 7 7 6 6 4 4 4 4 5 6 4 4 4 4 4 3 2 2 3 3
12 13 13 13 13 12 11 12 11 10 9 9 12 13 15 18 18 16 14 12 13 15 15 15 13 12 12 12 12 13 12 10 8 10 9 6 7 7 6 5 4 6 5 5 6 6 6 6 7 7 7 7 7 7 6 6 6 7 8 9 9 9 8 9 9 8 7 8 8 7 7 7 6 7 6 5 5 5 3 4 3 2 3 4 4
13 13 13 13 13 13 13 13 11 10 10 12 15 17 15 16 16 13 11 13 14 14 14 14 12 12 12 12 12 12 12 10 10 10 11 9 9 8 6 6 6 5 5 5 6 6 6 6 7 8 7 7 7 6 6 6 6 6 7 7 7 8 8 8 8 8 9 8 8 7 7 7 7 6 5 6 6 5 4 4 5 4 3 4 4
13 13 13 13 13 14 14 13 12 12 12 15 16 14 14 15 14 12 10 12 14 15 15 15 13 13 11 10 10 8 8 10 10 10 10 9 6 6 7 7 6 6 6 6 7 7 6 7 6 6 7 7 7 7 7 7 7 7 8 8 8 9 8 8 8 9 8 8 7 7 7 7 7 6 6 6 6 5 6 5 5 4 4 4 4
13 13 13 14 14 14 14 12 13 12 14 14 12 14 12 12 13 12 8 13 11 10 14 15 13 12 10 10 10 7 10 11 9 9 8 8 6 7 6 6 6 7 7 7 7 7 7 6 7 8 8 8 8 8 8 7 8 8 8 8 9 8 9 9 9 9 9 9 7 7 7 7 7 7 7 7 7 7 7 7 5 2 4 5 4
14 14 15 15 15 15 12 11 11 12 14 15 13 15 12 14 14 14 14 15 16 15 13 13 11 11 9 10 11 8 11 11 7 6 7 7 6 7 6 6 7 7 7 7 7 8 8 8 8 8 8 8 7 7 7 8 7 7 8 8 8 8 9 8 9 9 9 9 9 7 7 7 7 7 7 7 7 7 7 6 7 6 4 5 4
14 14 14 15 15 14 12 12 13 13 16 15 16 14 14 13 14 16 17 14 14 13 12 11 10 8 10 10 10 10 7 9 7 6 6 6 7 7 8 7 7 7 7 8 8 8 8 9 8 8 8 7 7 8 8 7 8 8 8 8 9 7 9 10 9 9 9 9 8 8 7 8 7 7 7 6 6 6 6 6 7 7 7 7 6
15 14 14 15 14 14 14 13 13 15 14 14 14 14 16 15 15 18 15 13 12 10 11 10 9 12 12 13 12 13 12 12 9 9 9 8 7 7 7 8 8 7 7 7 8 8 8 8 8 8 7 7 8 8 8 8 8 8 8 8 8 8 8 9 8 8 8 7 7 8 7 7 7 6 6 5 5 5 5 6 7 8 7 7 8
15 15 14 14 14 15 14 13 15 16 16 15 14 13 15 15 17 16 14 15 12 13 12 12 13 12 13 12 12 12 12 12 10 10 9 8 7 8 8 8 8 8 7 7 9 9 8 9 8 8 7 7 8 8 8 9 9 8 8 8 8 8 8 7 7 7 7 7 7 6 6 7 6 6 6 6 5 5 5 6 6 7 7 8 7
14 14 14 14 15 15 16 16 16 16 15 15 14 15 14 15 15 14 15 15 15 14 14 13 12 11 12 14 14 12 9 9 8 10 9 9 8 8 9 9 9 9 9 9 9 9 8 8 8 8 7 8 8 8 8 8 8 8 8 8 7 7 7 7 6 6 6 6 6 6 5 5 5 6 5 5 5 5 6 6 6 6 8 7 6
14 14 14 15 16 16 17 16 17 17 16 15 16 14 16 16 15 15 15 15 12 12 12 15 13 12 13 13 13 13 12 12 11 8 9 9 9 9 10 10 9 8 9 10 9 9 9 9 8 8 8 8 8 8 9 9 8 8 7 7 7 8 8 7 7 6 5 6 7 7 6 5 4 4 5 5 5 6 6 6 6 6 6 7 6
15 15 15 16 16 16 16 16 16 16 15 14 15 16 15 15 16 15 17 17 16 13 13 14 13 13 15 15 14 14 13 12 12 11 11 9 8 9 9 9 9 9 9 10 9 9 9 9 9 8 8 8 9 9 8 8 8 8 8 8 8 8 8 7 7 7 6 6 6 7 7 6 5 5 5 5 6 6 6 6 6 6 6 6 7
15 15 15 15 16 17 16 15 16 16 16 16 16 15 16 16 16 16 15 15 15 15 13 14 13 14 15 15 16 13 12 12 12 11 11 9 9 9 9 10 10 10 9 10 10 9 9 9 8 9 9 9 10 10 9 8 9 9 8 6 7 8 8 8 7 7 6 4 5 7 7 6 5 6 6 6 6 5 6 6 6 6 6 6 6
14 15 15 15 17 17 17 18 19 18 16 15 15 16 16 15 17 15 14 14 13 13 13 14 14 14 15 15 14 12 12 14 13 10 11 10 9 9 9 10 10 10 9 9 10 9 9 9 9 9 9 10 10 10 9 9 9 9 9 8 7 8 8 7 7 7 7 6 6 6 5 5 4 5 5 5 5 5 5 5 5 4 5 5 5
14 14 14 15 16 16 16 17 17 17 16 17 16 16 15 15 15 16 15 15 13 12 13 15 14 15 15 15 12 12 14 13 13 10 12 11 10 9 9 10 10 10 10 9 10 10 9 9 9 9 10 10 10 9 10 10 10 9 9 9 8 7 7 7 7 6 6 6 6 5 5 5 5 6 5 5 6 5 5 5 5 4 4 5 4
16 17 18 17 17 18 17 17 17 16 16 14 17 16 16 14 15 16 15 15 14 13 14 15 15 16 15 15 15 13 13 13 12 11 12 11 11 9 8 10 10 10 10 10 9 9 9 9 8 10 10 10 11 11 10 10 9 8 9 8 8 7 7 7 6 6 6 6 6 6 5 5 5 6 5 6 6 6 5 6 5 5 5 5 4
17 18 18 18 18 16 16 16 15 16 16 16 16 15 15 15 15 13 15 15 15 14 15 15 15 16 16 17 16 13 13 13 13 12 12 11 10 9 10 9 10 11 11 10 10 9 8 9 9 10 10 11 11 10 10 10 9 8 8 7 8 7 7 7 6 6 6 5 5 6 6 6 6 6 5 5 5 5 4 5 6 6 6 6 6
17 17 16 16 17 18 18 17 15 16 16 15 15 15 14 14 14 14 14 14 15 14 15 15 16 16 16 16 15 13 12 12 12 12 11 10 9 9 10 10 10 11 11 10 10 9 8 9 10 10 11 11 11 10 10 9 9 8 8 8 7 7 7 6 6 6 5 5 5 5 6 6 6 6 6 6 5 4 3 5 5 6 6 7 7
16 17 19 19 18 17 18 17 17 16 15 14 14 14 14 13 15 14 13 13 12 15 15 15 16 15 14 13 11 10 11 10 11 11 10 10 9 9 9 9 10 11 10 10 10 10 9 9 10 10 10 10 10 10 9 9 8 8 8 8 7 7 7 6 6 6 5 5 6 6 7 7 7 7 7 6 6 5 4 5 5 6 7 7 7
19 18 18 18 18 17 17 17 16 17 17 17 15 14 13 14 14 13 13 13 14 15 15 15 15 13 12 11 10 8 8 10 10 11 10 10 9 9 9 9 9 9 8 10 10 10 10 10 10 10 11 10 9 9 8 8 8 8 8 8 8 7 7 7 7 6 6 6 6 6 7 7 7 7 8 6 6 6 5 5 6 6 7 7 7
19 18 18 16 17 18 17 18 18 18 19 17 16 15 15 14 12 12 13 13 14 14 13 12 12 12 12 11 10 8 9 10 10 10 10 10 9 9 10 10 10 10 10 9 10 10 10 10 11 11 10 9 8 7 6 6 6 8 8 6 6 7 6 6 6 6 6 6 7 7 7 7 6 6 4 1 1 3 6 6 5 6 7 7 7
17 17 18 17 17 17 17 18 19 19 18 16 15 15 15 15 13 13 12 12 12 10 10 11 12 12 13 12 11 10 10 10 10 10 10 10 10 9 10 10 10 10 10 10 9 10 10 10 11 11 11 9 7 6 8 6 5 4 7 7 6 6 6 6 6 6 6 6 6 6 6 5 6 8 7 7 5 4 2 1 1 4 6 6 7
17 17 18 18 17 19 18 18 19 19 18 16 15 15 16 15 14 12 10 11 11 9 10 10 10 12 13 13 10 10 10 10 10 10 11 11 10 11 10 10 10 11 10 9 10 10 10 10 10 11 10 9 8 10 8 6 4 3 4 5 6 6 5 5 5 5 5 6 6 5 5 5 5 5 3 5 6 6 4 4 4 4 3 1 4
18 18 18 17 17 18 18 19 18 17 16 17 16 14 15 16 14 14 13 12 9 8 9 10 10 12 13 11 11 11 10 10 10 11 11 11 11 11 11 11 11 10 10 10 10 10 10 10 10 11 11 10 9 10 8 7 3 1 4 4 6 5 5 5 5 5 5 4 5 5 4 4 4 2 4 2 1 4 8 8 9 8 5 6 7
15 16 17 18 16 15 16 18 18 18 18 17 17 15 14 14 14 14 15 11 10 8 9 10 11 11 11 12 11 11 11 11 11 11 11 12 12 11 11 10 10 10 10 10 10 10 10 10 10 11 10 10 11 10 9 7 5 3 3 7 7 4 5 5 5 5 4 4 3 3 4 4 4 4 5 5 3 2 3 1 0 2 3 9 10
15 16 16 17 18 17 16 15 15 17 16 16 15 15 15 14 13 15 16 13 11 11 10 11 10 11 11 13 12 11 11 11 11 11 12 12 12 11 11 10 10 11 11 10 10 11 10 10 10 10 9 10 9 12 9 8 6 5 5 7 6 4 5 5 4 4 4 4 4 3 3 4 4 4 5 6 7 4 3 2 2 1 1 3 6
14 16 15 16 16 17 19 18 17 18 17 16 14 13 15 15 15 15 15 13 12 12 12 10 10 10 11 12 13 12 11 11 12 12 13 13 12 11 11 10 10 10 10 10 10 9 10 10 10 9 8 9 9 12 9 9 7 7 7 4 6 5 5 5 4 4 4 3 3 2 3 3 3 4 5 6 7 7 4 3 3 3 3 2 4
15 15 15 15 15 16 18 17 16 17 17 16 15 13 13 15 15 15 15 13 13 13 14 14 13 13 13 13 12 12 12 13 13 13 13 12 12 12 11 10 11 11 11 11 10 10 10 10 10 9 9 8 9 9 10 9 9 9 7 4 6 5 5 5 4 4 3 3 2 2 2 2 2 4 4 7 9 10 4 4 4 4 4 5 6
15 15 16 16 16 15 17 17 17 17 16 14 14 14 14 16 15 13 12 12 13 13 13 14 15 15 16 15 14 13 13 13 13 14 13 12 12 11 11 11 12 12 12 11 11 11 10 10 9 9 7 8 9 9 11 10 9 11 9 4 5 5 5 5 5 3 3 3 5 6 6 2 2 4 3 7 9 9 4 5 5 5 6 6 7
13 15 15 15 15 16 18 18 18 18 16 16 16 16 15 17 16 15 14 13 11 11 12 14 14 14 13 13 14 15 15 14 14 14 13 14 13 12 11 11 10 11 11 10 10 10 10 10 10 11 12 10 9 9 11 11 10 10 8 5 5 5 5 5 5 4 3 4 5 5 6 6 5 4 2 4 7 8 4 5 5 5 5 6 7
13 12 12 14 14 16 17 17 17 17 17 16 16 16 16 15 15 16 17 14 14 13 13 8 7 10 12 11 11 12 12 13 14 13 12 12 11 10 11 10 9 9 9 8 8 9 11 10 10 11 10 10 10 9 10 11 10 9 10 6 4 4 5 5 4 5 5 4 4 5 6 6 3 2 2 2 4 6 6 4 5 4 5 5 7
13 13 12 13 14 15 15 16 15 17 17 16 13 12 13 15 16 16 18 13 10 10 11 12 12 10 11 12 11 12 13 11 10 9 8 8 8 8 8 8 7 7 8 9 10 9 9 8 8 8 9 8 10 11 11 12 10 10 9 6 4 4 4 5 4 4 4 5 5 4 5 7 4 2 1 1 3 5 7 5 4 4 4 5 8
11 13 13 12 13 13 14 14 14 15 15 14 14 13 15 16 15 15 15 12 12 11 12 12 13 11 10 12 12 11 10 9 9 9 9 9 8 10 10 12 9 10 12 12 11 10 10 9 8 9 10 10 10 13 11 12 12 11 9 8 6 4 1 4 4 4 4 4 3 3 4 7 4 3 1 1 2 4 7 5 4 3 8 8 7
12 14 12 12 12 12 14 13 13 14 13 13 16 16 14 15 16 15 13 14 14 13 13 12 13 12 11 11 11 12 10 9 10 10 11 11 11 11 11 11 12 12 13 13 12 11 11 11 10 10 10 11 10 9 12 12 13 12 11 8 8 5 7 4 3 3 3 3 3 3 6 8 4 4 4 2 3 4 8 2 2 7 9 11 9
11 12 12 13 12 13 14 14 13 13 13 13 14 13 14 14 15 14 12 12 13 14 14 13 12 11 12 11 12 13 11 10 12 11 11 12 12 11 11 11 11 12 12 12 11 11 11 12 12 11 11 10 9 10 9 13 13 13 11 10 6 3 6 5 4 3 3 2 4 3 6 9 4 5 5 5 5 5 3 4 6 9 11 10 7
12 12 12 12 12 12 14 15 12 13 12 13 14 15 15 16 10 11 12 13 13 14 13 12 11 11 11 12 12 12 12 12 11 12 12 11 12 12 11 11 11 11 11 12 12 12 12 11 12 11 11 10 10 10 9 9 12 13 10 9 7 5 5 3 5 6 4 2 8 10 9 5 5 6 7 6 6 6 5 6 7 11 11 6 3
11 11 12 12 12 13 13 15 13 13 12 12 14 14 16 13 13 13 14 14 14 13 12 13 12 11 12 12 13 12 12 13 13 11 11 10 11 11 10 11 11 11 11 12 12 12 12 11 11 11 11 11 10 10 9 9 8 9 8 7 6 6 6 5 7 5 7 7 5 5 2 2 5 5 7 7 5 4 8 8 9 10 8 2 3
12 12 12 11 12 12 13 14 14 13 12 12 13 12 12 13 14 13 14 13 14 13 12 12 12 12 12 12 13 11 11 12 13 11 10 10 10 10 10 11 11 11 11 11 11 12 12 11 12 11 11 11 10 10 9 9 10 9 9 7 7 6 6 4 5 7 6 4 5 5 4 7 4 6 7 5 5 3 6 8 8 8 3 1 1
11 12 13 13 13 13 12 13 12 11 10 10 11 13 13 14 13 12 12 13 13 13 13 12 13 11 11 11 11 13 13 11 12 11 11 11 11 11 11 10 11 11 12 11 11 11 12 11 11 11 11 10 10 10 10 10 11 10 10 10 10 9 9 9 8 8 8 7 6 6 4 6 7 7 8 8 7 6 5 4 3 2 2 2 2
10 13 14 13 13 13 13 13 11 10 10 11 10 9 11 13 12 12 12 13 12 12 11 12 11 10 10 10 9 12 11 11 11 11 10 10 11 11 10 9 10 10 10 10 10 10 11 10 10 10 11 11 10 11 11 10 10 10 10 10 10 10 8 9 4 3 6 6 6 6 7 8 7 7 4 6 5 5 4 3 3 4 3 4 4
10 10 12 12 12 12 11 12 10 10 10 11 11 10 11 12 12 12 13 13 13 13 12 11 9 9 9 10 9 10 10 11 11 11 11 7 12 9 3 5 10 7 4 4 2 7 9 9 9 9 9 9 10 8 11 13 11 11 6 3 9 8 8 4 7 5 3 5 7 7 7 6 7 6 5 4 3 3 3 3 4 4 4 3 2
10 11 12 12 10 10 11 11 10 11 11 12 11 10 11 12 12 12 13 13 14 13 12 10 11 10 10 9 9 10 10 10 11 11 10 10 9 6 10 13 11 9 6 4 6 7 4 2 4 7 7 13 12 15 16 13 12 11 9 6 6 7 8 7 5 4 3 5 4 5 6 7 6 6 3 5 4 4 3 3 4 3 3 2 2
Wind_Direction
175 172 182 179 185 185 188 185 185 185 187 185 185 186 182 177 172 171 172 175 172 170 173 169 168 167 167 173 170 171 172 177 184 184 193 180 177 176 181 176 166 153 154 145 156 149 135 122 120 105 82 61 47 50 40 30 11 1 336 25 347 39 38 9 12 321 301 134 121 123 121 102 86 64 57 63 56 44 33 40 38 30 27 25 26
162 173 183 175 182 187 185 188 187 186 189 188 189 187 181 174 173 167 170 174 172 173 173 176 177 174 173 171 171 166 167 178 174 176 191 177 191 181 175 170 139 149 139 142 151 147 139 129 116 82 65 60 49 49 37 31 16 9 325 143 45 45 53 19 7 324 92 342 164 146 137 110 91 78 70 57 52 46 45 46 47 40 31 31 26
178 183 186 182 182 183 185 188 188 192 190 191 189 187 182 177 173 166 169 170 171 172 175 177 170 160 164 144 151 160 161 166 169 151 153 141 186 176 152 127 136 132 136 136 139 130 122 113 98 79 52 42 49 43 34 29 26 15 6 343 119 85 72 39 26 7 2 338 325 197 146 160 136 128 97 76 63 46 46 49 45 41 39 35 32
189 188 185 183 185 184 186 189 190 191 189 192 190 188 180 180 173 166 159 160 163 172 167 161 151 148 160 162 170 173 161 145 134 147 132 146 157 120 74 64 125 123 129 130 119 107 102 95 82 70 57 38 31 42 42 45 41 32 25 21 329 89 61 56 35 25 17 326 185 17 107 265 148 90 86 98 85 63 47 50 43 45 39 38 41
195 192 188 186 187 192 193 194 190 193 193 195 193 185 178 178 165 160 149 155 166 143 140 134 145 159 150 144 142 146 146 154 153 135 141 122 106 79 97 105 100 96 98 102 101 92 83 83 85 86 72 47 44 57 57 46 47 50 45 41 25 37 90 77 55 35 34 22 4 214 174 102 42 64 143 84 65 71 63 55 51 41 41 36 33
200 194 195 186 189 189 187 191 194 195 199 196 192 190 177 174 160 146 139 127 142 148 144 145 143 142 153 153 156 162 160 167 164 155 159 151 113 94 69 73 76 81 86 86 86 93 90 88 90 88 77 67 66 68 71 73 50 53 42 45 54 33 61 107 93 63 49 39 45 50 21 28 26 3 261 122 112 79 76 63 53 46 40 40 34
202 195 196 194 185 191 193 195 198 202 200 194 190 187 171 159 138 115 112 123 139 157 163 157 159 165 177 176 176 175 171 168 156 144 133 100 76 75 59 55 70 65 76 91 93 92 93 85 81 80 81 88 79 77 76 64 60 48 48 50 46 47 56 79 77 106 87 62 59 52 52 43 32 349 62 185 141 97 68 58 55 50 45 42 36
197 198 199 195 187 196 198 200 204 207 196 186 172 177 136 107 103 110 127 166 170 165 172 168 166 172 178 182 179 181 174 144 125 111 107 113 111 109 102 83 84 81 89 93 96 92 88 89 87 84 86 81 86 81 74 69 72 65 55 56 53 51 47 65 71 51 68 73 61 77 74 61 48 49 22 18 50 88 86 93 74 59 57 42 31
200 194 196 196 190 197 203 205 208 203 194 172 186 117 98 103 117 144 164 172 169 164 169 170 171 175 176 169 170 156 134 132 133 125 121 110 93 98 93 95 88 87 83 83 82 88 94 93 90 90 88 88 87 84 76 70 63 60 59 57 58 59 56 61 67 62 59 69 91 82 76 73 73 59 50 35 24 96 93 64 68 92 74 48 23
199 203 198 201 203 206 203 201 199 193 178 162 113 120 136 149 158 158 153 167 164 162 169 176 176 175 170 171 167 143 129 130 130 121 120 111 126 139 123 101 108 99 83 82 85 92 95 99 98 93 89 85 83 83 81 73 68 65 61 63 65 70 64 60 62 66 66 59 54 56 74 78 69 62 48 47 63 35 50 48 52 37 30 61 24
198 201 203 203 203 197 190 202 197 183 170 140 130 147 159 161 155 158 164 168 166 168 173 174 171 171 169 167 159 146 142 141 133 127 127 131 147 146 126 121 112 99 98 93 96 95 92 91 94 95 93 93 90 86 78 78 76 76 72 70 66 68 71 70 69 67 68 64 60 59 59 51 47 50 37 37 36 35 41 51 39 30 38 51 42
191 196 199 198 192 197 197 200 195 178 159 128 144 150 149 153 156 150 169 163 170 174 174 175 171 176 173 162 158 156 154 155 142 132 147 155 156 140 130 123 109 107 110 108 102 97 96 99 100 100 97 93 89 85 86 83 81 78 75 74 72 70 73 73 73 74 73 74 66 64 62 58 54 51 45 36 31 31 16 30 30 6 42 42 46
187 193 197 196 197 194 194 198 189 177 149 139 153 153 149 146 135 138 177 167 172 173 175 173 175 177 172 151 142 144 154 153 143 135 146 154 150 140 135 124 127 122 117 111 105 108 112 112 109 103 99 91 92 92 86 83 82 79 78 76 73 71 67 72 73 67 68 70 73 65 64 61 60 54 43 40 38 34 24 25 18 31 4 39 50
182 189 192 198 198 198 198 192 185 169 152 148 156 155 144 129 139 141 180 185 169 173 173 172 174 172 161 143 138 167 151 151 139 145 150 159 146 135 131 132 126 121 118 121 130 131 119 105 102 99 98 97 92 86 84 84 85 87 84 81 79 77 78 78 77 76 72 70 70 71 65 65 59 51 48 46 40 36 34 21 355 28 20 32 50
179 188 194 195 198 198 192 185 173 163 159 154 157 150 137 138 149 152 195 196 170 172 174 169 166 161 147 141 156 143 147 146 138 138 140 149 144 130 123 118 114 117 116 125 128 123 113 111 108 104 100 99 96 93 93 91 91 92 86 84 83 81 82 81 79 78 75 73 71 72 73 65 60 52 49 45 44 40 32 20 11 12 54 48 39
180 186 192 194 195 192 181 176 174 162 160 155 155 151 144 140 154 165 191 188 175 171 168 159 158 141 120 128 137 141 130 134 122 131 144 142 135 128 118 112 113 115 118 126 126 122 119 117 112 106 105 102 100 101 101 99 97 96 94 92 92 92 92 89 88 83 79 78 76 75 73 67 59 53 52 48 44 38 37 29 23 23 13 27 20
179 182 186 187 189 186 182 175 173 162 159 158 156 154 145 147 162 177 170 161 163 162 155 147 136 134 145 148 149 148 146 145 145 147 147 142 130 115 115 116 119 117 124 128 123 120 122 118 112 109 105 101 100 102 103 103 102 98 99 100 97 94 91 87 85 85 85 81 77 74 73 72 66 60 53 51 44 39 41 39 35 28 14 20 17
179 179 180 181 183 180 178 177 173 163 160 157 158 151 146 158 161 172 151 151 157 167 160 156 148 149 140 144 153 155 151 146 142 143 145 135 124 118 117 123 125 128 130 129 126 123 121 120 115 113 108 105 107 108 106 104 104 101 103 100 98 101 99 94 88 86 84 80 78 77 75 73 64 60 61 50 43 41 42 40 40 37 25 28 17
174 176 175 179 182 180 178 175 168 161 160 157 154 153 156 156 159 156 156 162 169 166 160 151 151 151 154 155 156 155 140 134 138 144 138 125 122 125 130 128 131 139 138 135 134 131 129 124 122 118 114 111 110 110 111 108 108 108 106 106 107 105 101 98 94 91 87 85 85 83 81 80 75 67 59 56 49 41 39 41 39 39 35 24 10
173 175 177 178 184 182 178 172 164 159 159 156 155 158 160 155 156 156 160 164 167 161 152 151 153 155 152 153 154 156 149 141 141 136 124 126 133 136 136 137 144 143 139 137 135 137 135 132 128 123 119 118 118 116 115 117 115 112 113 109 108 110 106 102 101 93 92 91 89 82 71 69 68 74 64 53 52 48 39 37 37 37 39 22 8
176 176 175 177 181 177 172 170 162 159 159 157 158 162 161 159 161 160 164 162 159 161 161 153 151 152 152 154 154 153 144 146 142 140 127 127 136 142 139 144 142 139 138 139 139 140 138 133 130 128 125 125 124 123 122 121 119 115 110 111 114 111 106 103 103 102 99 95 88 85 80 72 64 59 56 59 51 45 46 43 35 33 33 25 9
173 173 171 175 175 171 171 170 158 158 156 158 160 163 165 167 163 164 170 168 164 166 166 153 150 153 154 153 153 150 145 147 138 131 125 135 144 146 146 145 138 138 143 141 142 138 138 136 131 129 129 130 130 127 128 124 120 119 116 116 117 114 109 105 103 101 100 95 85 82 80 73 64 63 56 52 46 44 42 41 37 28 25 16 11
168 170 172 176 175 174 172 170 164 161 156 156 160 163 168 168 160 165 170 170 168 163 159 153 147 151 154 154 152 148 148 142 133 129 134 145 147 147 150 143 138 140 142 142 139 141 139 136 133 132 132 133 132 129 128 126 124 124 123 121 120 117 114 117 116 110 105 100 93 85 80 76 69 70 65 58 51 45 40 42 32 22 17 4 355
169 172 171 175 174 168 171 169 165 162 156 160 160 162 168 167 166 166 169 166 162 156 160 153 147 147 152 154 149 149 148 144 134 132 143 150 147 147 148 138 137 141 142 140 142 141 139 138 135 133 135 136 133 131 131 130 128 125 127 125 123 121 119 116 112 110 104 97 92 89 80 72 71 67 59 60 50 45 43 31 22 19 11 359 347
173 174 173 170 170 171 173 170 163 158 156 154 155 157 167 168 169 169 162 164 159 158 159 151 147 150 156 159 159 155 151 142 131 138 146 149 146 145 141 137 141 141 141 143 144 141 141 138 139 141 140 138 138 136 132 129 128 129 127 128 125 118 115 108 102 99 96 94 89 78 71 67 62 65 61 54 52 40 35 31 14 15 6 359 345
174 172 171 168 171 171 169 167 161 157 155 153 151 159 169 172 171 167 158 164 158 161 158 151 152 154 159 162 163 155 148 137 136 143 147 144 145 143 138 142 145 143 144 146 145 145 143 142 143 143 142 141 139 135 134 134 132 132 130 126 123 122 118 115 113 105 99 93 87 77 68 63 59 58 54 49 43 36 29 23 16 6 2 354 350
174 171 171 165 169 172 167 160 155 153 154 146 150 159 168 168 168 168 162 162 160 160 158 158 160 161 158 157 161 156 143 138 142 144 143 141 141 138 141 146 147 146 148 148 147 143 144 144 143 142 144 141 138 137 135 135 137 136 133 130 128 125 121 115 110 105 98 93 84 76 68 59 56 53 50 36 25 28 26 22 15 4 1 358 357
172 173 172 169 169 167 162 155 153 150 144 134 147 157 164 165 168 169 162 160 163 161 159 161 163 162 155 144 139 136 138 140 142 137 134 137 138 141 143 144 146 150 151 151 148 145 143 143 142 144 140 139 137 137 139 142 141 138 136 134 131 130 126 122 116 111 107 97 85 76 68 57 53 46 38 36 18 6 4 29 16 8 3 3 2
175 174 175 170 167 162 159 153 152 146 138 142 148 154 158 167 174 174 168 165 164 161 160 159 159 147 139 134 129 129 130 131 130 131 131 135 140 143 147 146 150 150 152 150 147 145 145 143 143 142 141 140 142 140 145 147 144 143 140 139 139 135 133 127 124 117 109 99 87 78 69 67 65 60 44 29 8 340 342 20 19 11 7 5 4
175 172 170 165 163 157 151 150 150 147 147 148 150 155 159 166 173 172 171 165 162 157 147 147 144 138 135 133 128 125 132 130 127 127 133 138 144 151 152 150 152 152 152 151 148 147 145 145 144 144 143 144 143 146 103 116 144 147 147 140 138 140 138 131 122 117 107 101 99 93 94 103 119 114 114 147 263 339 343 354 6 14 7 9 8
174 170 167 165 158 153 151 151 154 151 150 149 152 155 157 163 168 167 165 165 159 133 137 141 137 137 134 129 131 134 131 130 132 135 140 146 150 152 153 152 152 153 153 152 152 148 149 149 149 148 147 148 147 118 89 70 57 126 146 146 146 137 134 133 132 123 117 114 108 105 106 138 150 158 155 165 167 203 222 322 330 350 0 5 9
172 169 163 158 158 157 153 154 153 151 148 147 151 155 157 161 164 159 156 160 156 135 137 137 135 138 135 132 128 129 133 134 138 142 149 154 154 156 155 154 153 154 154 154 154 152 149 151 152 152 152 153 141 115 114 101 88 6 312 153 142 138 136 132 128 125 119 112 106 99 84 74 51 29 351 157 165 154 181 202 227 229 197 294 327
170 168 163 157 157 156 153 152 153 153 149 151 153 153 157 159 158 156 156 159 141 122 125 127 136 140 135 125 130 138 140 141 146 152 156 158 159 158 156 156 157 157 156 158 156 151 152 154 157 157 156 153 140 133 130 133 112 254 311 278 139 139 139 124 120 113 111 111 112 108 100 85 79 267 267 26 4 155 181 203 204 197 218 204 209
171 171 164 156 157 154 154 155 155 154 154 153 156 157 154 151 148 152 159 153 130 127 125 131 140 140 136 132 142 146 145 149 154 158 160 161 161 161 158 158 156 158 160 157 153 153 155 158 161 160 159 154 149 141 145 145 151 213 281 288 132 140 123 124 119 114 111 105 102 108 107 93 76 47 24 342 351 348 357 12 138 146 166 188 205
168 174 174 163 160 158 150 148 146 147 148 145 154 159 152 152 153 155 162 152 144 139 138 140 141 141 144 145 148 146 146 152 160 162 163 163 162 158 160 159 160 162 162 159 157 159 161 161 162 163 162 157 144 142 151 154 168 200 246 275 127 142 136 123 117 106 103 100 98 92 80 90 86 57 30 341 330 335 338 351 341 359 30 18 39
173 175 168 162 161 158 157 154 149 151 156 159 153 151 153 156 163 155 158 154 147 146 145 145 143 145 150 146 143 144 152 158 163 165 166 164 162 161 161 159 161 162 161 160 159 159 159 161 161 160 157 157 139 150 151 164 175 199 235 217 142 148 138 136 131 130 130 120 106 96 97 93 86 62 48 321 308 310 315 5 17 15 30 42 42
163 168 160 159 159 156 159 154 156 162 161 156 151 146 143 147 158 159 156 148 152 155 157 158 157 158 156 150 149 153 159 166 167 165 166 163 160 162 160 162 163 164 165 163 159 157 156 155 152 153 161 165 150 161 160 174 182 201 226 192 154 154 139 144 145 143 138 119 101 55 52 91 90 66 35 318 314 307 330 11 19 16 30 29 23
159 160 161 158 154 160 159 157 156 161 155 148 150 152 150 156 163 158 145 141 153 157 163 165 165 165 163 160 157 158 162 166 164 167 165 163 162 160 161 165 167 163 161 159 156 155 150 143 147 155 161 157 162 167 172 178 188 205 235 185 168 151 146 149 149 168 145 124 77 42 352 12 73 67 17 312 328 314 6 9 10 6 22 21 13
169 169 166 158 160 163 164 160 155 155 159 157 155 153 153 164 166 165 155 154 157 160 162 167 166 167 165 161 161 162 165 166 169 170 166 163 163 162 162 165 163 158 154 152 147 139 139 148 163 159 172 169 168 170 180 180 192 209 233 211 178 151 160 157 159 158 173 144 134 116 57 26 31 66 325 307 342 339 354 17 351 6 14 20 6
159 164 161 162 153 155 166 163 162 162 164 164 158 159 160 160 161 164 170 163 166 171 172 142 121 149 151 154 162 164 167 169 172 166 161 159 155 154 156 157 153 153 143 138 140 148 156 166 169 172 164 172 170 174 183 184 190 207 236 264 183 162 164 162 178 164 167 163 154 143 133 120 123 191 258 318 345 351 334 4 356 17 4 11 345
158 160 160 163 160 165 164 167 170 168 168 168 161 155 157 167 166 169 177 168 152 141 124 131 155 161 151 152 156 162 160 164 155 141 135 131 131 125 116 112 124 127 137 153 160 166 166 169 174 168 162 172 177 180 177 183 190 203 227 241 227 170 168 171 180 181 186 166 176 167 128 125 150 167 238 316 347 333 318 312 20 9 1 333 312
154 143 166 160 163 169 167 169 167 167 165 159 165 163 168 170 165 171 172 157 147 137 136 146 162 165 151 154 161 157 147 138 134 132 132 139 141 143 144 152 157 161 166 164 168 172 175 175 179 179 182 188 186 188 173 184 190 193 212 229 261 175 188 184 191 184 199 171 169 154 134 128 145 181 230 271 318 305 308 297 44 329 300 293 280
143 150 174 165 165 164 164 165 162 169 174 173 177 172 162 168 175 176 170 157 151 147 147 152 161 158 154 155 152 145 143 143 146 149 149 150 153 154 157 165 169 170 172 173 180 181 183 182 183 187 190 197 192 196 177 179 189 191 197 217 244 296 4 293 235 195 197 175 168 144 113 125 163 197 208 211 271 300 258 54 3 278 276 275 270
149 166 171 172 164 167 164 162 165 171 177 178 176 166 166 171 173 164 160 152 147 148 152 159 161 154 152 156 153 152 150 149 151 154 156 155 160 161 165 174 175 174 173 177 182 185 186 186 189 190 193 192 191 191 173 182 182 191 188 203 221 241 306 269 284 233 202 181 184 175 117 138 180 206 218 222 230 276 352 20 271 275 271 272 272
164 175 169 179 167 167 173 168 168 174 178 181 186 182 175 177 149 120 141 147 150 147 149 152 152 152 154 159 157 156 152 151 155 158 157 160 161 165 169 174 175 175 176 180 182 186 190 189 191 193 192 193 192 192 180 172 171 182 189 188 200 211 248 292 273 244 239 77 67 81 112 160 194 215 226 230 219 219 232 240 258 267 272 265 331
171 170 173 182 170 172 172 177 174 178 177 179 182 175 173 158 142 148 155 157 155 151 150 153 154 155 157 158 156 154 154 155 159 164 164 166 167 172 176 174 176 179 180 182 184 185 190 190 193 194 192 190 186 189 180 162 165 166 184 182 196 193 209 228 272 334 26 79 80 87 119 193 214 232 228 222 224 168 187 218 243 258 262 325 344
172 171 175 178 168 174 172 171 178 179 178 173 169 170 153 142 154 158 161 158 157 154 151 153 156 156 157 158 155 157 159 161 163 167 172 173 172 178 178 177 179 182 183 184 183 184 189 192 193 192 190 186 184 187 183 169 179 179 189 171 180 187 183 200 236 226 202 195 160 192 205 207 271 215 246 316 289 250 230 226 224 228 252 306 329
171 166 179 168 171 173 168 168 167 168 167 158 167 176 157 152 154 155 158 161 160 159 158 161 159 156 157 160 160 150 156 163 169 171 176 178 180 182 180 180 185 184 184 185 185 187 192 193 191 189 187 186 184 190 187 182 182 186 190 190 193 201 200 212 216 217 212 208 190 175 199 214 218 211 217 221 216 218 223 235 252 277 256 232 250
169 169 179 174 179 177 173 173 168 161 159 155 138 134 145 147 152 157 160 161 161 157 155 150 151 152 157 162 161 163 169 166 171 180 180 182 185 184 180 184 190 191 188 187 185 188 195 194 193 190 186 187 192 191 192 181 180 179 187 186 191 197 199 205 194 14 202 194 201 205 211 214 217 217 219 227 215 214 222 220 222 261 254 236 233
169 173 182 179 175 170 171 170 159 157 156 164 169 155 158 155 153 162 166 165 158 156 153 150 147 149 157 165 165 168 170 168 171 178 178 150 46 52 68 185 188 176 174 210 241 195 195 192 194 195 193 197 197 189 129 134 139 156 165 86 47 47 60 34 94 75 316 222 210 217 219 217 218 217 220 225 231 233 236 235 217 180 248 243 289
170 175 180 183 175 167 163 163 158 158 159 159 168 164 161 162 162 166 170 166 161 164 168 162 157 163 164 165 163 169 172 173 177 179 180 168 170 130 67 45 26 142 136 104 85 45 26 314 226 189 84 54 83 109 133 138 139 152 155 137 100 84 89 109 124 137 204 234 239 226 228 230 227 236 225 224 222 228 227 236 249 224 239 206 239